FW2270 Weather Reports


Display with metric or nautical units.
time (UTC)temp
F
wind
direction
speed
MPH
gust
MPH
rain 1hr
in
rain 24hr
in
rain mn
in
humidity
%
barometer
mb
20260509083421 48 276 0.0 1.0 0.00 0.00 0.00 95 1016.9
20260509082454 49 276 0.0 1.0 0.00 0.00 0.00 95 1016.8
20260509081452 49 276 0.0 2.0 0.00 0.00 0.00 95 1016.8
20260509080424 49 276 0.0 1.0 0.00 0.00 0.00 95 1016.9
20260509075436 49 276 0.0 2.0 0.00 0.00 0.00 95 1016.9
20260509074430 50 276 2.0 3.0 0.00 0.00 0.00 95 1016.9
20260509073429 50 278 0.0 4.0 0.00 0.00 0.00 95 1017.0
20260509072424 50 274 1.0 4.0 0.00 0.00 0.00 95 1017.0
20260509071438 50 282 2.0 4.0 0.00 0.00 0.00 95 1017.1
20260509070415 50 267 3.0 4.0 0.00 0.00 0.00 95 1017.1
20260509065428 50 270 3.0 5.0 0.00 0.00 0.00 94 1017.3
20260509064442 50 265 0.0 4.0 0.00 0.00 0.00 94 1017.2
20260509063415 50 265 3.0 5.0 0.00 0.00 0.00 94 1017.3
20260509062433 50 260 3.0 6.0 0.00 0.00 0.00 94 1017.3
20260509061427 50 270 2.0 6.0 0.00 0.00 0.00 94 1017.3
20260509060419 51 265 4.0 6.0 0.00 0.00 0.00 94 1017.4
20260509055431 51 281 4.0 7.0 0.00 0.00 0.00 94 1017.4
20260509054430 51 266 3.0 6.0 0.00 0.00 0.00 94 1017.4
20260509053424 51 270 3.0 5.0 0.00 0.00 0.00 94 1017.5
20260509052418 51 260 3.0 5.0 0.00 0.00 0.00 94 1017.6
20260509051433 51 265 3.0 5.0 0.00 0.00 0.00 95 1017.4
20260509045450 51 270 0.0 4.0 0.00 0.00 0.00 94 1017.4
20260509044421 51 273 0.0 3.0 0.00 0.00 0.00 94 1017.2
20260509043420 51 286 1.0 2.0 0.00 0.00 0.00 94 1017.2
20260509042433 51 286 2.0 4.0 0.00 0.00 0.00 94 1017.2
20260509041428 51 265 2.0 5.0 0.00 0.00 0.00 94 1017.1
20260509040442 52 270 0.0 4.0 0.00 0.00 0.00 93 1017.0
20260509035417 52 273 3.0 4.0 0.00 0.00 0.00 93 1016.9
20260509034431 52 274 3.0 5.0 0.00 0.00 0.00 93 1016.9
20260509033446 53 268 1.0 5.0 0.00 0.00 0.00 93 1016.9
20260509032419 53 267 3.0 6.0 0.00 0.00 0.00 92 1016.8
20260509031418 53 274 3.0 6.0 0.00 0.00 0.00 91 1016.7
20260509030432 54 298 1.0 4.0 0.00 0.00 0.00 90 1016.7
20260509025423 55 278 1.0 4.0 0.00 0.00 0.00 89 1016.7
20260509024419 57 289 0.0 5.0 0.00 0.00 0.00 87 1016.7
20260509023432 57 271 2.0 5.0 0.00 0.00 0.00 86 1016.8
20260509022445 58 256 3.0 6.0 0.00 0.00 0.00 85 1016.7
20260509021416 58 295 5.0 10.0 0.00 0.00 0.00 84 1016.7
20260509020428 58 284 5.0 10.0 0.00 0.00 0.00 84 1016.6
20260509015426 59 263 4.0 10.0 0.00 0.00 0.00 84 1016.7
20260509014421 60 292 1.0 8.0 0.00 0.00 0.00 84 1016.8
20260509013415 59 279 1.0 9.0 0.00 0.00 0.00 84 1016.8
20260509012455 59 266 5.0 9.0 0.00 0.00 0.00 83 1016.9
20260509011428 60 253 5.0 10.0 0.00 0.00 0.00 82 1017.0
20260509010423 61 279 5.0 11.0 0.00 0.00 0.00 81 1017.1
20260509005437 61 267 2.0 12.0 0.00 0.00 0.00 82 1017.0
20260509004414 61 277 3.0 8.0 0.00 0.00 0.00 82 1017.1
20260509003448 61 237 4.0 9.0 0.00 0.00 0.00 83 1017.2
20260509002420 61 284 2.0 11.0 0.00 0.00 0.00 84 1017.3
20260509001413 61 284 5.0 12.0 0.00 0.00 0.00 84 1017.3
20260509000452 61 283 4.0 10.0 0.00 0.00 0.00 84 1017.6
20260508235424 61 312 6.0 12.0 0.00 0.00 0.00 83 1017.7
20260508234416 62 313 4.0 11.0 0.00 0.00 0.00 85 1017.8
20260508233429 62 284 4.0 14.0 0.00 0.00 0.00 83 1018.0
20260508232428 62 280 4.0 12.0 0.00 0.00 0.00 83 1017.9
20260508231441 63 308 4.0 11.0 0.00 0.00 0.00 83 1018.0
20260508230433 63 300 2.0 9.0 0.00 0.00 0.00 85 1018.1
20260508225424 62 275 4.0 11.0 0.00 0.00 0.00 86 1018.3
20260508224423 62 258 6.0 12.0 0.00 0.00 0.00 83 1018.4
20260508223438 63 311 5.0 11.0 0.00 0.00 0.00 83 1018.5
20260508222451 62 278 6.0 12.0 0.00 0.00 0.00 84 1018.5
20260508221425 63 276 4.0 10.0 0.00 0.00 0.00 83 1018.7
20260508220423 63 312 5.0 12.0 0.00 0.00 0.00 83 1018.8
20260508215416 63 316 4.0 10.0 0.00 0.00 0.00 82 1018.9
20260508214430 63 244 3.0 10.0 0.00 0.00 0.00 85 1019.0
20260508213445 63 272 3.0 13.0 0.00 0.00 0.00 83 1019.0
20260508212423 63 255 5.0 12.0 0.00 0.00 0.00 83 1019.2
20260508211416 64 268 4.0 13.0 0.00 0.00 0.00 84 1019.2
20260508210431 64 312 3.0 11.0 0.00 0.00 0.00 84 1019.3
20260508205427 64 313 3.0 10.0 0.00 0.00 0.00 83 1019.3
20260508204421 64 294 3.0 9.0 0.00 0.00 0.00 85 1019.3
20260508203416 64 307 3.0 10.0 0.00 0.00 0.00 85 1019.3
20260508202429 63 317 2.0 9.0 0.00 0.00 0.00 84 1019.5
20260508201426 63 284 4.0 11.0 0.00 0.00 0.00 82 1019.7
20260508200420 64 275 3.0 8.0 0.00 0.00 0.00 85 1019.8
20260508195433 63 291 2.0 7.0 0.00 0.00 0.00 86 1019.9
20260508194425 62 294 4.0 8.0 0.00 0.00 0.00 86 1019.9
20260508121433 49 317 0.0 0.0 0.00 0.00 0.00 97 1019.2
20260508120451 50 317 1.0 3.0 0.00 0.00 0.00 97 1019.1
20260508115423 50 317 2.0 4.0 0.00 0.00 0.00 97 1019.1
20260508114437 49 315 0.0 3.0 0.00 0.00 0.00 97 1019.2
20260508113431 50 314 0.0 2.0 0.00 0.00 0.00 97 1019.1
20260508112428 50 315 1.0 4.0 0.00 0.00 0.00 97 1019.2
20260508111423 50 310 1.0 2.0 0.00 0.00 0.00 96 1019.3
20260508110418 50 308 0.0 5.0 0.00 0.00 0.00 96 1019.3
20260508105450 50 312 0.0 4.0 0.00 0.00 0.00 96 1019.3
20260508104428 50 295 1.0 2.0 0.00 0.00 0.00 96 1019.3
20260508103423 50 295 0.0 2.0 0.00 0.00 0.00 96 1019.3
20260508102417 51 285 1.0 4.0 0.00 0.00 0.00 96 1019.2
20260508101414 51 289 1.0 3.0 0.00 0.00 0.00 96 1019.2
20260508100429 51 321 1.0 5.0 0.00 0.00 0.00 96 1019.2
20260508095422 51 307 0.0 6.0 0.00 0.00 0.00 96 1019.2
20260508094416 51 297 1.0 3.0 0.00 0.00 0.00 96 1019.2
20260508093415 51 291 0.0 2.0 0.00 0.00 0.00 96 1019.2
20260508092429 51 291 0.0 5.0 0.00 0.00 0.00 96 1019.2
20260508091423 51 319 1.0 4.0 0.00 0.00 0.00 96 1019.2
20260508090438 51 294 0.0 2.0 0.00 0.00 0.00 96 1019.1
20260508085414 51 313 0.0 4.0 0.00 0.00 0.00 96 1019.1
20260508084429 51 311 0.0 2.0 0.00 0.00 0.00 96 1019.1